owner,sensor,date,latitude,longitude,vertical_datum,sea_water_temperature,qcFlag
Chevron,ioos:station:GCOOS:42G01:1,2023-08-01T00:00:00Z,28.0261,-89.3011,11.1,31.1,11111222
Chevron,ioos:station:GCOOS:42G01:1,2023-08-01T00:10:00Z,28.0261,-89.3011,10.9,31.1,11111222
Chevron,ioos:station:GCOOS:42G01:1,2023-08-01T00:20:00Z,28.0261,-89.3011,11.0,31.1,11111222
Chevron,ioos:station:GCOOS:42G01:1,2023-08-01T00:30:00Z,28.0261,-89.3011,10.9,31.2,11111222
Chevron,ioos:station:GCOOS:42G01:1,2023-08-01T00:40:00Z,28.0261,-89.3011,10.7,31.2,11111222
Chevron,ioos:station:GCOOS:42G01:1,2023-08-01T00:50:00Z,28.0261,-89.3011,10.7,31.1,11111222
Chevron,ioos:station:GCOOS:42G01:1,2023-08-01T01:00:00Z,28.0261,-89.3011,10.8,31.1,11111222
Chevron,ioos:station:GCOOS:42G01:1,2023-08-01T01:10:00Z,28.0261,-89.3011,11.1,31.1,11111222
Chevron,ioos:station:GCOOS:42G01:1,2023-08-01T01:20:00Z,28.0261,-89.3011,11.1,31.2,11111222
Chevron,ioos:station:GCOOS:42G01:1,2023-08-01T01:30:00Z,28.0261,-89.3011,11.4,31.2,11111222
Chevron,ioos:station:GCOOS:42G01:1,2023-08-01T01:40:00Z,28.0261,-89.3011,11.1,31.2,11111222
Chevron,ioos:station:GCOOS:42G01:1,2023-08-01T01:50:00Z,28.0261,-89.3011,11.1,31.1,11111222
Chevron,ioos:station:GCOOS:42G01:1,2023-08-01T02:00:00Z,28.0261,-89.3011,11.2,31.1,11111222
Chevron,ioos:station:GCOOS:42G01:1,2023-08-01T02:10:00Z,28.0261,-89.3011,11.1,31.1,11111222
Chevron,ioos:station:GCOOS:42G01:1,2023-08-01T02:20:00Z,28.0261,-89.3011,11.1,31.2,11111222
Chevron,ioos:station:GCOOS:42G01:1,2023-08-01T02:30:00Z,28.0261,-89.3011,11.1,31.1,11111222
Chevron,ioos:station:GCOOS:42G01:1,2023-08-01T02:40:00Z,28.0261,-89.3011,10.9,31.2,11111222
Chevron,ioos:station:GCOOS:42G01:1,2023-08-01T02:50:00Z,28.0261,-89.3011,11.1,31.2,11111222
Chevron,ioos:station:GCOOS:42G01:1,2023-08-01T03:00:00Z,28.0261,-89.3011,11.1,31.2,11111222
Chevron,ioos:station:GCOOS:42G01:1,2023-08-01T03:10:00Z,28.0261,-89.3011,11.4,31.2,11111222
Chevron,ioos:station:GCOOS:42G01:1,2023-08-01T03:20:00Z,28.0261,-89.3011,11.4,31.3,11111222
Chevron,ioos:station:GCOOS:42G01:1,2023-08-01T03:30:00Z,28.0261,-89.3011,11.6,31.3,11111222
Chevron,ioos:station:GCOOS:42G01:1,2023-08-01T03:40:00Z,28.0261,-89.3011,11.4,31.4,11111222
Chevron,ioos:station:GCOOS:42G01:1,2023-08-01T03:50:00Z,28.0261,-89.3011,11.4,31.4,11111222
Chevron,ioos:station:GCOOS:42G01:1,2023-08-01T04:00:00Z,28.0261,-89.3011,11.6,31.3,11111222
Chevron,ioos:station:GCOOS:42G01:1,2023-08-01T04:10:00Z,28.0261,-89.3011,11.4,31.4,11111222
Chevron,ioos:station:GCOOS:42G01:1,2023-08-01T04:20:00Z,28.0261,-89.3011,11.5,31.4,11111222
Chevron,ioos:station:GCOOS:42G01:1,2023-08-01T04:30:00Z,28.0261,-89.3011,11.6,31.4,11111222
Chevron,ioos:station:GCOOS:42G01:1,2023-08-01T04:40:00Z,28.0261,-89.3011,11.5,31.4,11111222
Chevron,ioos:station:GCOOS:42G01:1,2023-08-01T04:50:00Z,28.0261,-89.3011,11.6,31.4,11111222
Chevron,ioos:station:GCOOS:42G01:1,2023-08-01T05:00:00Z,28.0261,-89.3011,11.6,31.4,11111222
Chevron,ioos:station:GCOOS:42G01:1,2023-08-01T05:11:00Z,28.0261,-89.3011,11.3,31.4,11111222
Chevron,ioos:station:GCOOS:42G01:1,2023-08-01T05:21:00Z,28.0261,-89.3011,11.4,31.5,11111222
Chevron,ioos:station:GCOOS:42G01:1,2023-08-01T05:31:00Z,28.0261,-89.3011,11.5,31.4,11111222
Chevron,ioos:station:GCOOS:42G01:1,2023-08-01T05:41:00Z,28.0261,-89.3011,11.6,31.4,11111222
Chevron,ioos:station:GCOOS:42G01:1,2023-08-01T05:51:00Z,28.0261,-89.3011,11.6,31.4,11111222
Chevron,ioos:station:GCOOS:42G01:1,2023-08-01T06:01:00Z,28.0261,-89.3011,11.4,31.4,11111222
Chevron,ioos:station:GCOOS:42G01:1,2023-08-01T06:11:00Z,28.0261,-89.3011,11.5,31.4,11111222
Chevron,ioos:station:GCOOS:42G01:1,2023-08-01T06:21:00Z,28.0261,-89.3011,11.3,31.5,11111222
Chevron,ioos:station:GCOOS:42G01:1,2023-08-01T06:31:00Z,28.0261,-89.3011,11.5,31.4,11111222
Chevron,ioos:station:GCOOS:42G01:1,2023-08-01T06:41:00Z,28.0261,-89.3011,11.6,31.4,11111222
Chevron,ioos:station:GCOOS:42G01:1,2023-08-01T06:51:00Z,28.0261,-89.3011,11.5,31.4,11111222
Chevron,ioos:station:GCOOS:42G01:1,2023-08-01T07:01:00Z,28.0261,-89.3011,11.5,31.5,11111222
Chevron,ioos:station:GCOOS:42G01:1,2023-08-01T07:11:00Z,28.0261,-89.3011,11.2,31.4,11111222
Chevron,ioos:station:GCOOS:42G01:1,2023-08-01T07:21:00Z,28.0261,-89.3011,11.6,31.4,11111222
Chevron,ioos:station:GCOOS:42G01:1,2023-08-01T07:31:00Z,28.0261,-89.3011,11.7,31.4,11111222
Chevron,ioos:station:GCOOS:42G01:1,2023-08-01T07:41:00Z,28.0261,-89.3011,11.5,31.4,11111222
Chevron,ioos:station:GCOOS:42G01:1,2023-08-01T07:51:00Z,28.0261,-89.3011,11.4,31.4,11111222
Chevron,ioos:station:GCOOS:42G01:1,2023-08-01T08:01:00Z,28.0261,-89.3011,11.3,31.4,11111222
Chevron,ioos:station:GCOOS:42G01:1,2023-08-01T08:11:00Z,28.0261,-89.3011,11.4,31.4,11111222
Chevron,ioos:station:GCOOS:42G01:1,2023-08-01T08:21:00Z,28.0261,-89.3011,11.3,31.4,11111222
Chevron,ioos:station:GCOOS:42G01:1,2023-08-01T08:31:00Z,28.0261,-89.3011,11.4,31.4,11111222
Chevron,ioos:station:GCOOS:42G01:1,2023-08-01T08:41:00Z,28.0261,-89.3011,11.5,31.4,11111222
Chevron,ioos:station:GCOOS:42G01:1,2023-08-01T08:51:00Z,28.0261,-89.3011,11.2,31.5,11111222
Chevron,ioos:station:GCOOS:42G01:1,2023-08-01T09:01:00Z,28.0261,-89.3011,11.2,31.5,11111222
Chevron,ioos:station:GCOOS:42G01:1,2023-08-01T09:11:00Z,28.0261,-89.3011,11.3,31.6,11111222
Chevron,ioos:station:GCOOS:42G01:1,2023-08-01T09:21:00Z,28.0261,-89.3011,11.4,31.5,11111222
Chevron,ioos:station:GCOOS:42G01:1,2023-08-01T09:31:00Z,28.0261,-89.3011,11.4,31.5,11111222
Chevron,ioos:station:GCOOS:42G01:1,2023-08-01T09:41:00Z,28.0261,-89.3011,11.5,31.5,11111222
Chevron,ioos:station:GCOOS:42G01:1,2023-08-01T09:51:00Z,28.0261,-89.3011,11.6,31.5,11111222
Chevron,ioos:station:GCOOS:42G01:1,2023-08-01T10:01:00Z,28.0261,-89.3011,11.4,31.5,11111222
Chevron,ioos:station:GCOOS:42G01:1,2023-08-01T10:11:00Z,28.0261,-89.3011,11.3,31.5,11111222
Chevron,ioos:station:GCOOS:42G01:1,2023-08-01T10:21:00Z,28.0261,-89.3011,11.8,31.5,11111222
Chevron,ioos:station:GCOOS:42G01:1,2023-08-01T10:31:00Z,28.0261,-89.3011,11.4,31.5,11111222
Chevron,ioos:station:GCOOS:42G01:1,2023-08-01T10:41:00Z,28.0261,-89.3011,11.6,31.6,11111222
Chevron,ioos:station:GCOOS:42G01:1,2023-08-01T10:51:00Z,28.0261,-89.3011,11.4,31.6,11111222
Chevron,ioos:station:GCOOS:42G01:1,2023-08-01T11:01:00Z,28.0261,-89.3011,11.2,31.6,11111222
Chevron,ioos:station:GCOOS:42G01:1,2023-08-01T11:11:00Z,28.0261,-89.3011,11.3,31.6,11111222
Chevron,ioos:station:GCOOS:42G01:1,2023-08-01T11:21:00Z,28.0261,-89.3011,11.9,31.6,11111222
Chevron,ioos:station:GCOOS:42G01:1,2023-08-01T11:31:00Z,28.0261,-89.3011,11.4,31.6,11111222
Chevron,ioos:station:GCOOS:42G01:1,2023-08-01T11:41:00Z,28.0261,-89.3011,11.8,31.6,11111222
Chevron,ioos:station:GCOOS:42G01:1,2023-08-01T11:51:00Z,28.0261,-89.3011,11.5,31.6,11111222
Chevron,ioos:station:GCOOS:42G01:1,2023-08-01T12:01:00Z,28.0261,-89.3011,11.5,31.6,11111222
Chevron,ioos:station:GCOOS:42G01:1,2023-08-01T12:11:00Z,28.0261,-89.3011,11.5,31.6,11111222
Chevron,ioos:station:GCOOS:42G01:1,2023-08-01T12:21:00Z,28.0261,-89.3011,11.6,31.5,11111222
Chevron,ioos:station:GCOOS:42G01:1,2023-08-01T12:31:00Z,28.0261,-89.3011,11.6,31.4,11111222
Chevron,ioos:station:GCOOS:42G01:1,2023-08-01T12:41:00Z,28.0261,-89.3011,11.5,31.4,11111222
Chevron,ioos:station:GCOOS:42G01:1,2023-08-01T12:51:00Z,28.0261,-89.3011,11.7,31.3,11111222
Chevron,ioos:station:GCOOS:42G01:1,2023-08-01T13:01:00Z,28.0261,-89.3011,11.5,31.3,11111222
Chevron,ioos:station:GCOOS:42G01:1,2023-08-01T13:11:00Z,28.0261,-89.3011,11.6,31.3,11111222
Chevron,ioos:station:GCOOS:42G01:1,2023-08-01T13:21:00Z,28.0261,-89.3011,11.5,31.3,11111222
Chevron,ioos:station:GCOOS:42G01:1,2023-08-01T13:31:00Z,28.0261,-89.3011,11.5,31.4,11111222
Chevron,ioos:station:GCOOS:42G01:1,2023-08-01T13:41:00Z,28.0261,-89.3011,11.5,31.4,11111222
Chevron,ioos:station:GCOOS:42G01:1,2023-08-01T13:51:00Z,28.0261,-89.3011,11.3,31.4,11111222
Chevron,ioos:station:GCOOS:42G01:1,2023-08-01T14:01:00Z,28.0261,-89.3011,11.4,31.4,11111222
Chevron,ioos:station:GCOOS:42G01:1,2023-08-01T14:11:00Z,28.0261,-89.3011,11.2,31.4,11111222
Chevron,ioos:station:GCOOS:42G01:1,2023-08-01T14:21:00Z,28.0261,-89.3011,11.3,31.4,11111222
Chevron,ioos:station:GCOOS:42G01:1,2023-08-01T14:31:00Z,28.0261,-89.3011,11.4,31.4,11111222
Chevron,ioos:station:GCOOS:42G01:1,2023-08-01T14:41:00Z,28.0261,-89.3011,11.6,31.4,11111222
Chevron,ioos:station:GCOOS:42G01:1,2023-08-01T14:51:00Z,28.0261,-89.3011,11.6,31.4,11111222
Chevron,ioos:station:GCOOS:42G01:1,2023-08-01T15:01:00Z,28.0261,-89.3011,11.6,31.4,11111222
Chevron,ioos:station:GCOOS:42G01:1,2023-08-01T15:11:00Z,28.0261,-89.3011,11.7,31.4,11111222
Chevron,ioos:station:GCOOS:42G01:1,2023-08-01T15:21:00Z,28.0261,-89.3011,11.5,31.4,11111222
Chevron,ioos:station:GCOOS:42G01:1,2023-08-01T15:31:00Z,28.0261,-89.3011,11.8,31.3,11111222
Chevron,ioos:station:GCOOS:42G01:1,2023-08-01T15:41:00Z,28.0261,-89.3011,11.5,31.3,11111222
Chevron,ioos:station:GCOOS:42G01:1,2023-08-01T15:51:00Z,28.0261,-89.3011,11.7,31.3,11111222
Chevron,ioos:station:GCOOS:42G01:1,2023-08-01T16:01:00Z,28.0261,-89.3011,11.7,31.3,11111222
Chevron,ioos:station:GCOOS:42G01:1,2023-08-01T16:11:00Z,28.0261,-89.3011,11.8,31.4,11111222
Chevron,ioos:station:GCOOS:42G01:1,2023-08-01T16:21:00Z,28.0261,-89.3011,11.9,31.4,11111222
Chevron,ioos:station:GCOOS:42G01:1,2023-08-01T16:31:00Z,28.0261,-89.3011,11.7,31.4,11111222
Chevron,ioos:station:GCOOS:42G01:1,2023-08-01T16:41:00Z,28.0261,-89.3011,11.8,31.3,11111222
Chevron,ioos:station:GCOOS:42G01:1,2023-08-01T16:51:00Z,28.0261,-89.3011,11.7,31.3,11111222
Chevron,ioos:station:GCOOS:42G01:1,2023-08-01T17:01:00Z,28.0261,-89.3011,11.9,31.3,11111222
Chevron,ioos:station:GCOOS:42G01:1,2023-08-01T17:11:00Z,28.0261,-89.3011,11.6,31.3,11111222
Chevron,ioos:station:GCOOS:42G01:1,2023-08-01T17:21:00Z,28.0261,-89.3011,11.9,31.3,11111222
Chevron,ioos:station:GCOOS:42G01:1,2023-08-01T17:31:00Z,28.0261,-89.3011,11.9,31.3,11111222
Chevron,ioos:station:GCOOS:42G01:1,2023-08-01T17:41:00Z,28.0261,-89.3011,11.6,31.3,11111222
Chevron,ioos:station:GCOOS:42G01:1,2023-08-01T17:51:00Z,28.0261,-89.3011,11.9,31.4,11111222
Chevron,ioos:station:GCOOS:42G01:1,2023-08-01T18:01:00Z,28.0261,-89.3011,11.7,31.4,11111222
Chevron,ioos:station:GCOOS:42G01:1,2023-08-01T18:11:00Z,28.0261,-89.3011,11.8,31.3,11111222
Chevron,ioos:station:GCOOS:42G01:1,2023-08-01T18:21:00Z,28.0261,-89.3011,11.7,31.4,11111222
Chevron,ioos:station:GCOOS:42G01:1,2023-08-01T18:31:00Z,28.0261,-89.3011,11.8,31.4,11111222
Chevron,ioos:station:GCOOS:42G01:1,2023-08-01T18:41:00Z,28.0261,-89.3011,11.3,31.4,11111222
Chevron,ioos:station:GCOOS:42G01:1,2023-08-01T18:51:00Z,28.0261,-89.3011,11.4,31.3,11111222
Chevron,ioos:station:GCOOS:42G01:1,2023-08-01T19:01:00Z,28.0261,-89.3011,11.5,31.3,11111222
Chevron,ioos:station:GCOOS:42G01:1,2023-08-01T19:11:00Z,28.0261,-89.3011,11.6,31.3,11111222
Chevron,ioos:station:GCOOS:42G01:1,2023-08-01T19:21:00Z,28.0261,-89.3011,11.6,31.4,11111222
Chevron,ioos:station:GCOOS:42G01:1,2023-08-01T19:31:00Z,28.0261,-89.3011,11.5,31.4,11111222
Chevron,ioos:station:GCOOS:42G01:1,2023-08-01T19:41:00Z,28.0261,-89.3011,11.6,31.4,11111222
Chevron,ioos:station:GCOOS:42G01:1,2023-08-01T19:51:00Z,28.0261,-89.3011,11.3,31.4,11111222
Chevron,ioos:station:GCOOS:42G01:1,2023-08-01T20:01:00Z,28.0261,-89.3011,11.5,31.5,11111222
Chevron,ioos:station:GCOOS:42G01:1,2023-08-01T20:11:00Z,28.0261,-89.3011,11.7,31.5,11111222
Chevron,ioos:station:GCOOS:42G01:1,2023-08-01T20:21:00Z,28.0261,-89.3011,11.7,31.5,11111222
Chevron,ioos:station:GCOOS:42G01:1,2023-08-01T20:31:00Z,28.0261,-89.3011,11.9,31.5,11111222
Chevron,ioos:station:GCOOS:42G01:1,2023-08-01T20:41:00Z,28.0261,-89.3011,11.5,31.5,11111222
Chevron,ioos:station:GCOOS:42G01:1,2023-08-01T20:51:00Z,28.0261,-89.3011,11.4,31.5,11111222
Chevron,ioos:station:GCOOS:42G01:1,2023-08-01T21:01:00Z,28.0261,-89.3011,11.4,31.6,11111222
Chevron,ioos:station:GCOOS:42G01:1,2023-08-01T21:11:00Z,28.0261,-89.3011,11.6,31.5,11111222
Chevron,ioos:station:GCOOS:42G01:1,2023-08-01T21:21:00Z,28.0261,-89.3011,11.7,31.6,11111222
Chevron,ioos:station:GCOOS:42G01:1,2023-08-01T21:31:00Z,28.0261,-89.3011,11.6,31.6,11111222
Chevron,ioos:station:GCOOS:42G01:1,2023-08-01T21:41:00Z,28.0261,-89.3011,11.7,31.6,11111222
Chevron,ioos:station:GCOOS:42G01:1,2023-08-01T21:51:00Z,28.0261,-89.3011,11.6,31.6,11111222
Chevron,ioos:station:GCOOS:42G01:1,2023-08-01T22:01:00Z,28.0261,-89.3011,11.8,31.6,11111222
Chevron,ioos:station:GCOOS:42G01:1,2023-08-01T22:11:00Z,28.0261,-89.3011,11.3,31.7,11111222
Chevron,ioos:station:GCOOS:42G01:1,2023-08-01T22:21:00Z,28.0261,-89.3011,11.5,31.7,11111222
Chevron,ioos:station:GCOOS:42G01:1,2023-08-01T22:31:00Z,28.0261,-89.3011,11.7,31.7,11111222
Chevron,ioos:station:GCOOS:42G01:1,2023-08-01T22:41:00Z,28.0261,-89.3011,11.5,31.6,11111222
Chevron,ioos:station:GCOOS:42G01:1,2023-08-01T22:51:00Z,28.0261,-89.3011,11.6,31.5,11111222
Chevron,ioos:station:GCOOS:42G01:1,2023-08-01T23:02:00Z,28.0261,-89.3011,11.6,31.6,11111222
Chevron,ioos:station:GCOOS:42G01:1,2023-08-01T23:12:00Z,28.0261,-89.3011,11.6,31.6,11111222
Chevron,ioos:station:GCOOS:42G01:1,2023-08-01T23:22:00Z,28.0261,-89.3011,11.8,31.6,11111222
Chevron,ioos:station:GCOOS:42G01:1,2023-08-01T23:32:00Z,28.0261,-89.3011,11.6,31.6,11111222
Chevron,ioos:station:GCOOS:42G01:1,2023-08-01T23:42:00Z,28.0261,-89.3011,11.9,31.6,11111222
Chevron,ioos:station:GCOOS:42G01:1,2023-08-01T23:52:00Z,28.0261,-89.3011,11.5,31.6,11111222
Chevron,ioos:station:GCOOS:42G01:1,2023-08-02T00:02:00Z,28.0261,-89.3011,11.7,31.6,11111222
Chevron,ioos:station:GCOOS:42G01:1,2023-08-02T00:12:00Z,28.0261,-89.3011,11.7,31.6,11111222
Chevron,ioos:station:GCOOS:42G01:1,2023-08-02T00:22:00Z,28.0261,-89.3011,11.8,31.6,11111222
Chevron,ioos:station:GCOOS:42G01:1,2023-08-02T00:32:00Z,28.0261,-89.3011,11.7,31.6,11111222
Chevron,ioos:station:GCOOS:42G01:1,2023-08-02T00:42:00Z,28.0261,-89.3011,12.0,31.7,11111222
Chevron,ioos:station:GCOOS:42G01:1,2023-08-02T00:52:00Z,28.0261,-89.3011,11.7,31.6,11111222
Chevron,ioos:station:GCOOS:42G01:1,2023-08-02T01:02:00Z,28.0261,-89.3011,11.5,31.6,11111222
Chevron,ioos:station:GCOOS:42G01:1,2023-08-02T01:12:00Z,28.0261,-89.3011,11.5,31.7,11111222
Chevron,ioos:station:GCOOS:42G01:1,2023-08-02T01:22:00Z,28.0261,-89.3011,11.8,31.7,11111222
Chevron,ioos:station:GCOOS:42G01:1,2023-08-02T01:32:00Z,28.0261,-89.3011,11.6,31.7,11111222
Chevron,ioos:station:GCOOS:42G01:1,2023-08-02T01:42:00Z,28.0261,-89.3011,11.8,31.7,11111222
Chevron,ioos:station:GCOOS:42G01:1,2023-08-02T01:52:00Z,28.0261,-89.3011,11.8,31.6,11111222
Chevron,ioos:station:GCOOS:42G01:1,2023-08-02T02:02:00Z,28.0261,-89.3011,11.6,31.6,11111222
Chevron,ioos:station:GCOOS:42G01:1,2023-08-02T02:12:00Z,28.0261,-89.3011,11.4,31.6,11111222
Chevron,ioos:station:GCOOS:42G01:1,2023-08-02T02:22:00Z,28.0261,-89.3011,11.6,31.7,11111222
Chevron,ioos:station:GCOOS:42G01:1,2023-08-02T02:32:00Z,28.0261,-89.3011,11.6,31.6,11111222
Chevron,ioos:station:GCOOS:42G01:1,2023-08-02T02:42:00Z,28.0261,-89.3011,11.7,31.6,11111222
Chevron,ioos:station:GCOOS:42G01:1,2023-08-02T02:52:00Z,28.0261,-89.3011,11.7,31.6,11111222
Chevron,ioos:station:GCOOS:42G01:1,2023-08-02T03:02:00Z,28.0261,-89.3011,11.8,31.6,11111222
Chevron,ioos:station:GCOOS:42G01:1,2023-08-02T03:12:00Z,28.0261,-89.3011,11.7,31.7,11111222
Chevron,ioos:station:GCOOS:42G01:1,2023-08-02T03:22:00Z,28.0261,-89.3011,11.7,31.7,11111222
Chevron,ioos:station:GCOOS:42G01:1,2023-08-02T03:32:00Z,28.0261,-89.3011,11.6,31.6,11111222
Chevron,ioos:station:GCOOS:42G01:1,2023-08-02T03:42:00Z,28.0261,-89.3011,11.6,31.6,11111222
Chevron,ioos:station:GCOOS:42G01:1,2023-08-02T03:52:00Z,28.0261,-89.3011,11.4,31.6,11111222
Chevron,ioos:station:GCOOS:42G01:1,2023-08-02T04:02:00Z,28.0261,-89.3011,11.3,31.6,11111222
Chevron,ioos:station:GCOOS:42G01:1,2023-08-02T04:12:00Z,28.0261,-89.3011,11.7,31.6,11111222
Chevron,ioos:station:GCOOS:42G01:1,2023-08-02T04:22:00Z,28.0261,-89.3011,11.6,31.6,11111222
Chevron,ioos:station:GCOOS:42G01:1,2023-08-02T04:32:00Z,28.0261,-89.3011,11.4,31.6,11111222
Chevron,ioos:station:GCOOS:42G01:1,2023-08-02T04:42:00Z,28.0261,-89.3011,11.4,31.6,11111222
Chevron,ioos:station:GCOOS:42G01:1,2023-08-02T04:52:00Z,28.0261,-89.3011,11.8,31.6,11111222
Chevron,ioos:station:GCOOS:42G01:1,2023-08-02T05:02:00Z,28.0261,-89.3011,11.3,31.6,11111222
Chevron,ioos:station:GCOOS:42G01:1,2023-08-02T05:12:00Z,28.0261,-89.3011,11.7,31.6,11111222
Chevron,ioos:station:GCOOS:42G01:1,2023-08-02T05:22:00Z,28.0261,-89.3011,11.8,31.6,11111222
Chevron,ioos:station:GCOOS:42G01:1,2023-08-02T05:32:00Z,28.0261,-89.3011,11.8,31.6,11111222
Chevron,ioos:station:GCOOS:42G01:1,2023-08-02T05:42:00Z,28.0261,-89.3011,11.7,31.7,11111222
Chevron,ioos:station:GCOOS:42G01:1,2023-08-02T05:52:00Z,28.0261,-89.3011,11.7,31.6,11111222
Chevron,ioos:station:GCOOS:42G01:1,2023-08-02T06:02:00Z,28.0261,-89.3011,11.8,31.6,11111222
Chevron,ioos:station:GCOOS:42G01:1,2023-08-02T06:12:00Z,28.0261,-89.3011,11.5,31.5,11111222
Chevron,ioos:station:GCOOS:42G01:1,2023-08-02T06:22:00Z,28.0261,-89.3011,11.9,31.5,11111222
Chevron,ioos:station:GCOOS:42G01:1,2023-08-02T06:32:00Z,28.0261,-89.3011,11.9,31.4,11111222
Chevron,ioos:station:GCOOS:42G01:1,2023-08-02T06:42:00Z,28.0261,-89.3011,11.5,31.3,11111222
Chevron,ioos:station:GCOOS:42G01:1,2023-08-02T06:52:00Z,28.0261,-89.3011,11.9,31.3,11111222
Chevron,ioos:station:GCOOS:42G01:1,2023-08-02T07:02:00Z,28.0261,-89.3011,11.7,31.4,11111222
Chevron,ioos:station:GCOOS:42G01:1,2023-08-02T07:12:00Z,28.0261,-89.3011,11.7,31.3,11111222
Chevron,ioos:station:GCOOS:42G01:1,2023-08-02T07:22:00Z,28.0261,-89.3011,11.6,31.3,11111222
Chevron,ioos:station:GCOOS:42G01:1,2023-08-02T07:32:00Z,28.0261,-89.3011,11.5,31.3,11111222
Chevron,ioos:station:GCOOS:42G01:1,2023-08-02T07:42:00Z,28.0261,-89.3011,11.6,31.2,11111222
Chevron,ioos:station:GCOOS:42G01:1,2023-08-02T07:52:00Z,28.0261,-89.3011,11.1,31.1,11111222
Chevron,ioos:station:GCOOS:42G01:1,2023-08-02T08:02:00Z,28.0261,-89.3011,11.6,31.3,11111222
Chevron,ioos:station:GCOOS:42G01:1,2023-08-02T08:12:00Z,28.0261,-89.3011,11.7,31.2,11111222
Chevron,ioos:station:GCOOS:42G01:1,2023-08-02T08:22:00Z,28.0261,-89.3011,11.5,31.2,11111222
Chevron,ioos:station:GCOOS:42G01:1,2023-08-02T08:32:00Z,28.0261,-89.3011,11.7,31.2,11111222
Chevron,ioos:station:GCOOS:42G01:1,2023-08-02T08:42:00Z,28.0261,-89.3011,11.4,31.3,11111222
Chevron,ioos:station:GCOOS:42G01:1,2023-08-02T08:52:00Z,28.0261,-89.3011,11.8,31.4,11111222
Chevron,ioos:station:GCOOS:42G01:1,2023-08-02T09:02:00Z,28.0261,-89.3011,11.5,31.4,11111222
Chevron,ioos:station:GCOOS:42G01:1,2023-08-02T09:12:00Z,28.0261,-89.3011,11.5,31.4,11111222
Chevron,ioos:station:GCOOS:42G01:1,2023-08-02T09:22:00Z,28.0261,-89.3011,11.7,31.5,11111222
Chevron,ioos:station:GCOOS:42G01:1,2023-08-02T09:32:00Z,28.0261,-89.3011,11.7,31.6,11111222
Chevron,ioos:station:GCOOS:42G01:1,2023-08-02T09:42:00Z,28.0261,-89.3011,11.6,31.6,11111222
Chevron,ioos:station:GCOOS:42G01:1,2023-08-02T09:52:00Z,28.0261,-89.3011,11.4,31.6,11111222
Chevron,ioos:station:GCOOS:42G01:1,2023-08-02T10:02:00Z,28.0261,-89.3011,11.6,31.5,11111222
Chevron,ioos:station:GCOOS:42G01:1,2023-08-02T10:12:00Z,28.0261,-89.3011,11.5,31.5,11111222
Chevron,ioos:station:GCOOS:42G01:1,2023-08-02T10:22:00Z,28.0261,-89.3011,11.4,31.5,11111222
Chevron,ioos:station:GCOOS:42G01:1,2023-08-02T10:32:00Z,28.0261,-89.3011,11.5,31.5,11111222
Chevron,ioos:station:GCOOS:42G01:1,2023-08-02T10:42:00Z,28.0261,-89.3011,11.5,31.5,11111222
Chevron,ioos:station:GCOOS:42G01:1,2023-08-02T10:52:00Z,28.0261,-89.3011,11.4,31.4,11111222
Chevron,ioos:station:GCOOS:42G01:1,2023-08-02T11:02:00Z,28.0261,-89.3011,11.3,31.5,11111222
Chevron,ioos:station:GCOOS:42G01:1,2023-08-02T11:12:00Z,28.0261,-89.3011,11.6,31.4,11111222
Chevron,ioos:station:GCOOS:42G01:1,2023-08-02T11:22:00Z,28.0261,-89.3011,11.7,31.4,11111222
Chevron,ioos:station:GCOOS:42G01:1,2023-08-02T11:32:00Z,28.0261,-89.3011,11.3,31.3,11111222
Chevron,ioos:station:GCOOS:42G01:1,2023-08-02T11:42:00Z,28.0261,-89.3011,11.4,31.4,11111222
Chevron,ioos:station:GCOOS:42G01:1,2023-08-02T11:52:00Z,28.0261,-89.3011,11.0,31.1,11111222
Chevron,ioos:station:GCOOS:42G01:1,2023-08-02T12:02:00Z,28.0261,-89.3011,10.7,30.8,11111222
Chevron,ioos:station:GCOOS:42G01:1,2023-08-02T12:12:00Z,28.0261,-89.3011,10.8,30.9,11111222
Chevron,ioos:station:GCOOS:42G01:1,2023-08-02T12:22:00Z,28.0261,-89.3011,10.9,30.9,11111222
Chevron,ioos:station:GCOOS:42G01:1,2023-08-02T12:32:00Z,28.0261,-89.3011,11.0,30.9,11111222
Chevron,ioos:station:GCOOS:42G01:1,2023-08-02T12:42:00Z,28.0261,-89.3011,11.1,31.0,11111222
Chevron,ioos:station:GCOOS:42G01:1,2023-08-02T12:52:00Z,28.0261,-89.3011,11.2,31.0,11111222
Chevron,ioos:station:GCOOS:42G01:1,2023-08-02T13:02:00Z,28.0261,-89.3011,11.1,31.0,11111222
Chevron,ioos:station:GCOOS:42G01:1,2023-08-02T13:12:00Z,28.0261,-89.3011,10.9,31.0,11111222
Chevron,ioos:station:GCOOS:42G01:1,2023-08-02T13:22:00Z,28.0261,-89.3011,11.3,31.2,11111222
Chevron,ioos:station:GCOOS:42G01:1,2023-08-02T13:32:00Z,28.0261,-89.3011,11.5,31.3,11111222
Chevron,ioos:station:GCOOS:42G01:1,2023-08-02T13:42:00Z,28.0261,-89.3011,11.4,31.3,11111222
Chevron,ioos:station:GCOOS:42G01:1,2023-08-02T13:52:00Z,28.0261,-89.3011,11.5,31.3,11111222
Chevron,ioos:station:GCOOS:42G01:1,2023-08-02T14:02:00Z,28.0261,-89.3011,11.6,31.4,11111222
Chevron,ioos:station:GCOOS:42G01:1,2023-08-02T14:12:00Z,28.0261,-89.3011,11.6,31.4,11111222
Chevron,ioos:station:GCOOS:42G01:1,2023-08-02T14:22:00Z,28.0261,-89.3011,11.6,31.4,11111222
Chevron,ioos:station:GCOOS:42G01:1,2023-08-02T14:32:00Z,28.0261,-89.3011,11.4,31.3,11111222
Chevron,ioos:station:GCOOS:42G01:1,2023-08-02T14:42:00Z,28.0261,-89.3011,11.8,31.4,11111222
Chevron,ioos:station:GCOOS:42G01:1,2023-08-02T14:52:00Z,28.0261,-89.3011,11.5,31.4,11111222
Chevron,ioos:station:GCOOS:42G01:1,2023-08-02T15:02:00Z,28.0261,-89.3011,11.6,31.4,11111222
Chevron,ioos:station:GCOOS:42G01:1,2023-08-02T15:12:00Z,28.0261,-89.3011,11.5,31.5,11111222
Chevron,ioos:station:GCOOS:42G01:1,2023-08-02T15:22:00Z,28.0261,-89.3011,11.4,31.5,11111222
Chevron,ioos:station:GCOOS:42G01:1,2023-08-02T15:32:00Z,28.0261,-89.3011,11.2,31.5,11111222
Chevron,ioos:station:GCOOS:42G01:1,2023-08-02T15:42:00Z,28.0261,-89.3011,11.6,31.5,11111222
Chevron,ioos:station:GCOOS:42G01:1,2023-08-02T15:52:00Z,28.0261,-89.3011,11.6,31.5,11111222
Chevron,ioos:station:GCOOS:42G01:1,2023-08-02T16:02:00Z,28.0261,-89.3011,11.7,31.5,11111222
Chevron,ioos:station:GCOOS:42G01:1,2023-08-02T16:12:00Z,28.0261,-89.3011,11.2,31.5,11111222
Chevron,ioos:station:GCOOS:42G01:1,2023-08-02T16:22:00Z,28.0261,-89.3011,11.6,31.5,11111222
Chevron,ioos:station:GCOOS:42G01:1,2023-08-02T16:32:00Z,28.0261,-89.3011,11.5,31.5,11111222
Chevron,ioos:station:GCOOS:42G01:1,2023-08-02T16:42:00Z,28.0261,-89.3011,10.9,31.6,11111222
Chevron,ioos:station:GCOOS:42G01:1,2023-08-02T16:52:00Z,28.0261,-89.3011,11.1,31.6,11111222
Chevron,ioos:station:GCOOS:42G01:1,2023-08-02T17:03:00Z,28.0261,-89.3011,11.2,31.6,11111222
Chevron,ioos:station:GCOOS:42G01:1,2023-08-02T17:13:00Z,28.0261,-89.3011,11.3,31.6,11111222
Chevron,ioos:station:GCOOS:42G01:1,2023-08-02T17:23:00Z,28.0261,-89.3011,11.4,31.6,11111222
Chevron,ioos:station:GCOOS:42G01:1,2023-08-02T17:33:00Z,28.0261,-89.3011,11.3,31.6,11111222
Chevron,ioos:station:GCOOS:42G01:1,2023-08-02T17:43:00Z,28.0261,-89.3011,11.5,31.6,11111222
Chevron,ioos:station:GCOOS:42G01:1,2023-08-02T17:53:00Z,28.0261,-89.3011,11.4,31.6,11111222
Chevron,ioos:station:GCOOS:42G01:1,2023-08-02T18:03:00Z,28.0261,-89.3011,11.3,31.6,11111222
Chevron,ioos:station:GCOOS:42G01:1,2023-08-02T18:13:00Z,28.0261,-89.3011,11.5,31.6,11111222
Chevron,ioos:station:GCOOS:42G01:1,2023-08-02T18:23:00Z,28.0261,-89.3011,11.4,31.7,11111222
Chevron,ioos:station:GCOOS:42G01:1,2023-08-02T18:33:00Z,28.0261,-89.3011,11.5,31.7,11111222
Chevron,ioos:station:GCOOS:42G01:1,2023-08-02T18:43:00Z,28.0261,-89.3011,11.4,31.7,11111222